When you browse on this site, cookies collect data to enhance your experience and personalize the content and advertising you see.
Visit our Privacy Policy to learn more. By continuing to use the site, you agree to this use of cookies and data.
EN

Hourly Weather Acre River

Today, 5 August, Wednesday

Time Temperature Precipitation Wind Pressure Humidity
00:00 +22°C° 0 mm 0 mps 745 mmHg 51%
01:00 +22°C° 0 mm 0 mps 745 mmHg 57%
02:00 +21°C° 0 mm 0 mps 744 mmHg 58%
03:00 +21°C° 0 mm 0 mps 744 mmHg 59%
04:00 +21°C° 0 mm 0 mps 744 mmHg 60%
05:00 +21°C° 0 mm 0 mps 745 mmHg 59%
06:00 +22°C° 0 mm 0 mps 745 mmHg 58%
07:00 +23°C° 0 mm 0 mps 745 mmHg 57%
08:00 +27°C° 0 mm 0 mps 746 mmHg 48%
09:00 +32°C° 0 mm 1 mps 746 mmHg 38%
10:00 +36°C° 0 mm 1 mps 747 mmHg 29%
11:00 +37°C° 0 mm 1 mps 746 mmHg 26%
12:00 +36°C° 0 mm 0 mps 745 mmHg 23%
13:00 +38°C° 0 mm 0 mps 744 mmHg 20%
14:00 +37°C° 0 mm 0 mps 743 mmHg 21%
15:00 +36°C° 0 mm 0 mps 742 mmHg 22%
16:00 +34°C° 0 mm 0 mps 741 mmHg 23%
17:00 +32°C° 0 mm 0 mps 741 mmHg 28%
18:00 +29°C° 0 mm 0 mps 742 mmHg 33%
19:00 +26°C° 0 mm 0 mps 742 mmHg 38%
20:00 +25°C° 0 mm 0 mps 742 mmHg 39%
21:00 +25°C° 0 mm 0 mps 743 mmHg 40%
22:00 +24°C° 0 mm 0 mps 743 mmHg 41%
23:00 +24°C° 0 mm 0 mps 743 mmHg 43%

Tomorrow, 6 August, Thursday

Time Temperature Precipitation Wind Pressure Humidity
00:00 +23°C° 0 mm 0 mps 743 mmHg 45%
01:00 +22°C° 0 mm 0 mps 743 mmHg 47%
02:00 +22°C° 0 mm 0 mps 743 mmHg 48%
03:00 +22°C° 0 mm 0 mps 743 mmHg 49%
04:00 +21°C° 0 mm 0 mps 743 mmHg 50%
05:00 +22°C° 0 mm 0 mps 743 mmHg 50%
06:00 +22°C° 0 mm 0 mps 744 mmHg 50%
07:00 +23°C° 0 mm 0 mps 744 mmHg 50%
08:00 +28°C° 0 mm 1 mps 745 mmHg 42%
09:00 +32°C° 0 mm 1 mps 745 mmHg 34%
10:00 +36°C° 0 mm 1 mps 745 mmHg 26%
11:00 +39°C° 0 mm 1 mps 744 mmHg 23%
12:00 +40°C° 0 mm 1 mps 744 mmHg 21%
13:00 +41°C° 0 mm 1 mps 743 mmHg 18%
14:00 +41°C° 0 mm 1 mps 742 mmHg 18%
15:00 +40°C° 0 mm 1 mps 741 mmHg 19%
16:00 +39°C° 0 mm 1 mps 741 mmHg 19%
17:00 +35°C° 0 mm 1 mps 741 mmHg 23%
18:00 +30°C° 0 mm 0 mps 741 mmHg 28%
19:00 +27°C° 0 mm 0 mps 742 mmHg 32%
20:00 +26°C° 0 mm 0 mps 742 mmHg 33%
21:00 +25°C° 0 mm 0 mps 743 mmHg 35%
22:00 +24°C° 0 mm 0 mps 743 mmHg 37%
23:00 +24°C° 0 mm 0 mps 743 mmHg 38%

Day after tomorrow, 7 August, Friday

Time Temperature Precipitation Wind Pressure Humidity
00:00 +23°C° 0 mm 0 mps 743 mmHg 40%
01:00 +23°C° 0 mm 0 mps 743 mmHg 41%
02:00 +22°C° 0 mm 0 mps 743 mmHg 43%
03:00 +22°C° 0 mm 0 mps 743 mmHg 44%
04:00 +23°C° 0 mm 1 mps 743 mmHg 46%
05:00 +22°C° 0 mm 0 mps 744 mmHg 46%
06:00 +23°C° 0 mm 0 mps 744 mmHg 47%
07:00 +23°C° 0 mm 0 mps 745 mmHg 47%
08:00 +29°C° 0 mm 1 mps 745 mmHg 40%
09:00 +32°C° 0 mm 1 mps 745 mmHg 33%
10:00 +37°C° 0 mm 2 mps 746 mmHg 26%
11:00 +38°C° 0 mm 2 mps 745 mmHg 23%
12:00 +39°C° 0 mm 2 mps 744 mmHg 21%
13:00 +41°C° 0 mm 2 mps 743 mmHg 18%
14:00 +40°C° 0 mm 1 mps 742 mmHg 19%
15:00 +40°C° 0 mm 1 mps 742 mmHg 20%
16:00 +39°C° 0 mm 1 mps 741 mmHg 20%
17:00 +36°C° 0 mm 1 mps 741 mmHg 25%
18:00 +31°C° 0 mm 0 mps 742 mmHg 29%
19:00 +28°C° 0 mm 0 mps 742 mmHg 33%
20:00 +27°C° 0 mm 0 mps 742 mmHg 35%
21:00 +26°C° 0 mm 0 mps 742 mmHg 37%
22:00 +25°C° 0 mm 0 mps 743 mmHg 39%
23:00 +25°C° 0 mm 0 mps 743 mmHg 41%

8 August, Saturday

Time Temperature Precipitation Wind Pressure Humidity
00:00 +24°C° 0 mm 0 mps 743 mmHg 42%
01:00 +24°C° 0 mm 0 mps 743 mmHg 43%
02:00 +23°C° 0 mm 0 mps 743 mmHg 45%
03:00 +23°C° 0 mm 0 mps 743 mmHg 46%
04:00 +22°C° 0 mm 0 mps 743 mmHg 47%
05:00 +23°C° 0 mm 0 mps 744 mmHg 48%
06:00 +23°C° 0 mm 0 mps 744 mmHg 48%
07:00 +24°C° 0 mm 0 mps 745 mmHg 48%
08:00 +28°C° 0 mm 0 mps 745 mmHg 40%
09:00 +32°C° 0 mm 0 mps 745 mmHg 32%
10:00 +36°C° 0 mm 0 mps 746 mmHg 24%
11:00 +40°C° 0 mm 1 mps 745 mmHg 22%
12:00 +41°C° 0 mm 1 mps 744 mmHg 20%
13:00 +42°C° 0 mm 1 mps 743 mmHg 19%
14:00 +41°C° 0 mm 1 mps 742 mmHg 21%
15:00 +40°C° 0 mm 1 mps 742 mmHg 23%
16:00 +36°C° 0 mm 0 mps 741 mmHg 25%
17:00 +33°C° 0 mm 0 mps 741 mmHg 29%
18:00 +31°C° 0 mm 0 mps 742 mmHg 33%
19:00 +28°C° 0 mm 0 mps 742 mmHg 37%
20:00 +28°C° 0 mm 0 mps 742 mmHg 39%
21:00 +27°C° 0 mm 0 mps 743 mmHg 41%
22:00 +26°C° 0 mm 0 mps 743 mmHg 44%
23:00 +25°C° 0 mm 0 mps 743 mmHg 46%

9 August, Sunday

Time Temperature Precipitation Wind Pressure Humidity
00:00 +25°C° 0 mm 0 mps 743 mmHg 48%
01:00 +24°C° 0 mm 0 mps 742 mmHg 51%
02:00 +24°C° 0 mm 0 mps 742 mmHg 52%
03:00 +23°C° 0 mm 0 mps 742 mmHg 54%
04:00 +23°C° 0 mm 0 mps 742 mmHg 56%
05:00 +23°C° 0 mm 0 mps 743 mmHg 55%
06:00 +24°C° 0 mm 0 mps 744 mmHg 55%
07:00 +25°C° 0 mm 0 mps 744 mmHg 54%
08:00 +30°C° 0 mm 1 mps 744 mmHg 47%
09:00 +34°C° 0 mm 1 mps 744 mmHg 39%
10:00 +37°C° 0 mm 1 mps 745 mmHg 32%
11:00 +40°C° 0 mm 1 mps 744 mmHg 28%
12:00 +39°C° 0 mm 0 mps 743 mmHg 24%
13:00 +41°C° 0 mm 0 mps 742 mmHg 20%
14:00 +39°C° 0 mm 0 mps 741 mmHg 24%
15:00 +39°C° 0 mm 1 mps 740 mmHg 28%
16:00 +36°C° 0 mm 1 mps 740 mmHg 32%
17:00 +34°C° 0 mm 1 mps 740 mmHg 35%
18:00 +33°C° 0 mm 1 mps 740 mmHg 39%
19:00 +31°C° 0 mm 1 mps 741 mmHg 42%
20:00 +30°C° 0 mm 1 mps 741 mmHg 45%
21:00 +29°C° 0 mm 1 mps 741 mmHg 48%
22:00 +28°C° 0 mm 1 mps 741 mmHg 51%
23:00 +28°C° 0 mm 1 mps 741 mmHg 52%

10 August, Monday

Time Temperature Precipitation Wind Pressure Humidity
00:00 +27°C° 0 mm 1 mps 741 mmHg 54%
01:00 +27°C° 0 mm 1 mps 741 mmHg 56%
02:00 +26°C° 0 mm 1 mps 741 mmHg 58%
03:00 +26°C° 0 mm 1 mps 741 mmHg 61%
04:00 +25°C° 0 mm 1 mps 740 mmHg 63%
05:00 +26°C° 0 mm 1 mps 741 mmHg 62%
06:00 +27°C° 0 mm 1 mps 742 mmHg 61%
07:00 +28°C° 0 mm 1 mps 743 mmHg 60%
08:00 +31°C° 0 mm 1 mps 743 mmHg 51%
09:00 +34°C° 0 mm 1 mps 743 mmHg 41%
10:00 +39°C° 0 mm 2 mps 743 mmHg 32%
11:00 +39°C° 0 mm 1 mps 742 mmHg 30%
12:00 +40°C° 0 mm 1 mps 741 mmHg 28%
13:00 +40°C° 0 mm 1 mps 741 mmHg 25%
14:00 +40°C° 0 mm 1 mps 740 mmHg 26%
15:00 +40°C° 0 mm 1 mps 739 mmHg 27%
16:00 +39°C° 0 mm 1 mps 738 mmHg 27%
17:00 +36°C° 0 mm 1 mps 739 mmHg 33%
18:00 +33°C° 0 mm 1 mps 739 mmHg 38%
19:00 +29°C° 0 mm 0 mps 739 mmHg 44%
20:00 +28°C° 0 mm 0 mps 739 mmHg 46%
21:00 +28°C° 0 mm 0 mps 740 mmHg 48%
22:00 +27°C° 0 mm 0 mps 740 mmHg 50%
23:00 +26°C° 0 mm 0 mps 740 mmHg 53%
Show more